OBJECT C, 64050

Orbit data source: Space-Track

You're viewing an Uncataloged Satellite

Recently launched and/or uncataloged satellites may have evolving metadata. Metadata may include but not limited to: Owner, Maufacturer, Bus, Motor, and Mission.

OBJECT C, 64050 is a Chinese satellite in SSO that was launched on Sat, 17 May 2025 UTC via a ZHUQUE-2E launch vehicle from the Jiuquan Satellite Launch Center, China (JSC). Unknown objects in Earth's orbit typically refer to objects detected orbiting the Earth but have not yet been identified or cataloged. These objects could be anything from previously untracked satellites, spent rocket stages, debris from satellite collisions, or even natural meteoroids temporarily captured by Earth's gravity.

Loading next visibility...
Identifier
64050, 2025-103C
Orbit
SSO
Last TLE update
6 hours ago
Origin
Manufacturer
Changsha Tianyi
Mission
Operational Commercial Imaging
Bus & Motor
TY, Unknown motor
Mass
~50 kg wet, ~50 kg dry
Launch date (UTC)
2025-05-17 (2 months ago)
Launch vehicle
ZHUQUE-2E
Launch site
Jiuquan Satellite Launch Center, China (JSC)
Object type
Unknown
Shape & HBR
Box + 2 Pan, 0.5 m
Radar Cross Section
0.255 m², Medium (>0.1 m² and < 1m²)

Expand to show TLE details & history

TLE from 6 hours ago
0 OBJECT C
1 64050U 25103C   25211.57189338  .00006931  00000-0  36626-3 0  9996
2 64050  97.4123 285.4359 0002439 188.7730 171.3461 15.15799398 11261
Epoch: 2025-07-30T13:43Z
TLE epoch observation values (Epoch: 2025-07-30T13:43:31.588Z)
Latitude
0.00004°
Longitude
131.10508°
Altitude
523.3 km
Speed
7.601 km/s
True Right ascension
19h 01m 44s
True Declination
0° 00' 00"
Sunlit
Object was in full shadow at epoch
Visualization orbit readout
Latitude
-82.33662°
Longitude
-154.58939°
Altitude
546.744 km
Speed
7.588 km/s
Apparent Right ascension
21h 39m 37s
Apparent Declination
-62° 42' 29"
Sunlit
Object is in full shadow
Visualization observer readout
Local Sidereal Time
09:14:49
Azimuth
187.253° SSW
Elevation
-66.906°
Doppler factor
1
Orbital elements
Apogee altitude
517.206 km
Perigee altitude
513.843 km
Semi-major axis
6,893.661 km
Eccentricity
0.00024
Inclination
97.4123°
RAAN
285.4359°
Arg. of periapsis
188.773°
True anomaly
171.3503°
Mean anomaly
171.3461°
Eccentric anomaly
171.3482°
Mean motion
3.792 °/min
Orbital period
94.94 mins
BSTAR
0.00036626
Loading maneuver chart data...
Loading SW <> Apogee altitude chart data...
Loading historical data...
Loading historical data...
Loading historical data...
Loading historical data...
Loading historical data...
Loading historical data...
Loading historical data...
|